Terminal Aerodrome Forecast
Issued by NWS

Home | Current Version | Previous Version | Text Only | Print | Product List | Glossary On
Versions: 1 2 3 4 5 6 7 8 9 10 11 12 13 14 15 16 17 18 19 20 21 22 23 24 25 26 27 28 29 30 31 32 33 34 35 36 37 38 39 40 41 42 43 44 45 46 47 48 49 50
000
FTUS45 KBOU 221901 AAA
TAFBJC
TAF AMD
KBJC 221901Z 2219/2318 VRB06KT P6SM SCT060 BKN120
     FM222000 02011KT P6SM VCSH SCT050 BKN070
      TEMPO 2220/2224 2SM -SHSN BKN040
     FM230000 VRB06KT P6SM SCT060 BKN080
     FM230500 32015G25KT P6SM SCT060 BKN090=

USA.gov is the U.S. government's official web portal to all federal, state and local government web resources and services.